Home   Weather   Zittau   Past weeks

Flag for Germany Past Weather in Zittau, Saxony, Germany — Yesterday and Last 2 Weeks

Now
65 °F

Scattered clouds.


Feels Like: 65 °F
Forecast: 47 / 68 °F
Wind: 2 mph from South

Location: Liberec

Current Time: Sep 25, 2016 at 12:44:28 PM

Latest Report: Sep 25, 2016 at 12:00 PM


Visibility: 13 mi

Pressure: 30.19 "Hg

Humidity: 48%

Dew Point: 45 °F

Location of ZittauLocation

Past Weather in Zittau — Graph

°F

Zittau Temperature Yesterday

Maximum temperature yesterday: 66 °F (at 4:00 PM)
Minimum temperature yesterday: 42 °F (at 6:00 AM)
Average temperature yesterday: 53 °F

High & Low Weather Summary for the Past Weeks

 TemperatureHumidityPressure
High85 °F (Sep 12, 4:00 PM)99% (Sep 18, 8:00 PM)30.34 "Hg (Sep 18, 8:00 PM)
Low35 °F (Sep 22, 7:00 AM)27% (Sep 13, 3:00 PM)29.78 "Hg (Sep 17, 4:00 PM)
Average59 °F74%30.06 "Hg
* Reported Sep 10 11:00 AM — Sep 25 11:00 AM, Zittau, Weather by CustomWeather, © 2016

Note: Actual official high and low records may vary slightly from our data, if they occured in-between our weather recording intervals... More about our weather records

Advertising

Zittau Weather History for the Previous 24 Hours

Scroll right to see more
 ConditionsComfort  
Time TempWeatherWind HumidityBarometerVisibility
11:00 AM
Sun, Sep 25
62 °FPartly sunny.2 mph55%30.21 "Hg11 mi
10:00 AM59 °FPartly sunny.2 mph66%30.22 "Hg9 mi
9:00 AM52 °FPartly sunny.1 mph93%30.24 "Hg8 mi
8:00 AM47 °FPartly sunny.1 mph98%30.26 "Hg7 mi
7:00 AM42 °FQuite cool.1 mph98%30.28 "Hg3 mi
6:00 AM44 °FFog.1 mph98%30.27 "Hg3 mi
5:00 AM44 °FQuite cool.1 mph98%30.28 "Hg2 mi
4:00 AM44 °FFog.No wind98%30.29 "Hg1 mi
3:00 AM44 °FRain showers. Overcast.1 mph98%30.29 "Hg1 mi
2:00 AM44 °FRain showers. Overcast.1 mph99%30.29 "Hg1 mi
1:00 AM45 °FFog.1 mph98%30.29 "Hg1 mi
12:00 AM45 °FRain showers. Overcast.1 mph98%30.30 "Hg0 mi
11:00 PM
Sat, Sep 24
46 °FRain showers. Overcast.1 mph98%30.31 "Hg0 mi
10:00 PM47 °FClear.1 mph96%30.31 "Hg6 mi
9:00 PM48 °FPassing clouds.1 mph95%30.31 "Hg7 mi
8:00 PM51 °FPassing clouds.No wind91%30.30 "Hg9 mi
7:00 PM55 °FCool.1 mph80%30.28 "Hg6 mi
6:00 PM62 °FCool.1 mph64%30.26 "Hg12 mi
5:00 PM64 °FPassing clouds.2 mph54%30.27 "Hg17 mi
4:00 PM66 °FPassing clouds.2 mph54%30.26 "Hg17 mi
3:00 PM65 °FPassing clouds.5 mph54%30.27 "Hg16 mi
2:00 PM62 °FPartly sunny.1 mph62%30.29 "Hg14 mi
1:00 PM64 °FScattered clouds.1 mph55%30.29 "Hg14 mi
12:00 PM62 °FScattered clouds.1 mph57%30.32 "Hg12 mi
Weather by CustomWeather, © 2016

See weather overviewHow to use our weather pages